[[{"header":{"parameterUnit":"m.s-1","parameterCategory":2,"la1":30.2991,"la2":30.254,"lo1":-89.0895,"lo2":-89.0444,"dy":0.0017,"dx":0.0017,"nx":28,"ny":28,"refTime":"2024-08-20T09:00:00:Z","depth":"0","parameterNumber":2,"parameterNumberName":"U-component_of_CURRENTS"},"data":[0,0,0,0,0,0,0,0,0,0,0,0,0,0,0,0,0,0,0,0,0,0,0,0,0,0,0,0,0,0,0,0,0,0,0,0,0,0,0,0,0,0,0,0,0,0,0,0,0,0,0,0,0,0,0,0,0,0,-0.2625,-0.2627,0,-0.2703,-0.2703,-0.2703,-0.2674,-0.2673,-0.2672,-0.2671,-0.2602,-0.2601,-0.26,0,0,0,0,0,0,0,0,0,0,0,0,0,-0.2293,-0.2299,-0.2625,-0.2627,-0.2629,-0.2703,-0.2703,-0.2704,-0.2674,-0.2673,-0.2672,-0.2671,-0.2603,-0.2601,-0.26,0,0,0,0,0,0,0,0,0,0,0,0,0,-0.2403,-0.2302,-0.2625,-0.263,-0.2631,-0.2703,-0.2703,-0.2704,-0.2674,-0.2673,-0.2671,-0.267,-0.2603,-0.2602,-0.26,-0.2621,0,0,-0.2596,-0.2595,0,0,0,0,0,0,0,0,-0.2397,-0.2414,-0.2627,-0.263,-0.2632,-0.2685,-0.2561,-0.2672,-0.2675,-0.2649,-0.2671,-0.2669,-0.2623,-0.262,-0.2627,-0.2617,-0.2614,-0.2596,-0.2595,-0.2594,-0.2594,0,0,0,0,0,0,0,-0.2389,-0.2409,-0.2647,-0.2629,-0.2632,-0.2574,-0.2589,-0.2581,-0.2633,-0.2651,-0.2651,-0.2675,-0.2622,-0.2629,-0.2625,-0.2613,-0.2596,-0.2595,-0.2594,-0.2593,-0.2586,-0.2587,0,0,0,0,0,0,-0.2409,-0.2404,-0.2645,-0.265,-0.2518,-0.2583,-0.2598,-0.2662,-0.2637,-0.2635,-0.2676,-0.2673,-0.2632,-0.2627,-0.2623,-0.2632,-0.2594,-0.2593,-0.2592,-0.2585,-0.2586,-0.2587,0,0,0,0,0,0,-0.2402,-0.2432,-0.2642,-0.2532,-0.2556,-0.2592,-0.2663,-0.2665,-0.2668,-0.2659,-0.2652,-0.2677,-0.2631,-0.2625,-0.2607,-0.2629,-0.2592,-0.2591,-0.2584,-0.2585,-0.2586,-0.2658,0,0,0,0,0,0,-0.2393,-0.243,-0.2451,-0.2536,-0.2564,-0.2682,-0.2665,-0.2668,-0.2689,-0.2686,-0.2658,-0.2651,-0.2629,-0.2609,-0.2606,-0.2626,-0.259,-0.2584,-0.2585,-0.2586,-0.2655,-0.2662,-0.2667,0,0,0,0,0,-0.2382,-0.2399,-0.2453,-0.248,-0.2605,-0.2684,-0.2691,-0.2702,-0.2691,-0.2697,-0.2672,-0.2651,-0.2614,-0.2609,-0.2604,-0.2625,-0.2583,-0.2585,-0.2586,-0.2652,-0.266,-0.2667,0,0,0,0,0,0,-0.2249,-0.2403,-0.2461,-0.2524,-0.261,-0.2682,-0.2673,-0.2707,-0.2697,-0.268,-0.2658,-0.265,-0.2646,-0.2623,-0.2618,-0.2626,-0.2596,-0.2597,-0.2648,-0.2655,-0.2661,-0.2665,-0.2589,0,0,0,0,0,-0.2247,-0.2303,-0.2451,-0.2495,-0.2542,-0.2617,-0.2639,-0.2676,-0.2697,-0.2692,-0.2682,-0.2661,-0.2653,-0.2642,-0.2629,-0.2632,-0.2568,-0.2642,-0.2648,-0.2654,-0.2653,-0.254,-0.2535,-0.2591,-0.2591,-0.2591,0,0,-0.2208,-0.2295,-0.2328,-0.247,-0.2526,-0.2613,-0.2622,-0.2673,-0.2729,-0.2685,-0.2704,-0.2682,-0.2658,-0.2662,-0.2659,-0.2643,-0.2611,-0.2656,-0.2661,-0.2657,-0.254,-0.2534,-0.2529,-0.2592,-0.2592,-0.2592,0,0,-0.2165,-0.2247,-0.2297,-0.2383,-0.2501,-0.2569,-0.2595,-0.2694,-0.2711,-0.2754,-0.273,-0.2711,-0.2712,-0.2695,-0.2687,-0.2716,-0.2647,-0.2722,-0.2755,-0.2646,-0.2639,-0.2633,-0.2573,-0.256,-0.2724,-0.2724,-0.2724,0,-0.2119,-0.2239,-0.2311,-0.2395,-0.247,-0.2561,-0.2651,-0.2693,-0.2765,-0.2765,-0.2761,-0.2732,-0.2726,-0.271,-0.2742,-0.273,-0.2667,-0.2732,-0.2651,-0.2643,-0.2635,-0.2575,-0.256,-0.2728,-0.2727,-0.2727,-0.2727,0,-0.2149,-0.225,-0.2275,-0.2441,-0.2505,-0.2595,-0.2709,-0.2746,-0.2783,-0.2814,-0.2802,-0.2782,-0.2751,-0.2768,-0.2779,-0.2737,-0.2713,-0.2671,-0.263,-0.2633,-0.2571,-0.2554,-0.2733,-0.2732,-0.273,-0.273,0,0,-0.2088,-0.2275,-0.2293,-0.2389,-0.2559,-0.2624,-0.27,-0.2801,-0.281,-0.2844,-0.2831,-0.2847,-0.2805,-0.2795,-0.2783,-0.2728,-0.266,-0.2698,-0.2691,-0.2636,-0.2442,-0.2384,-0.236,-0.2589,-0.2586,-0.2584,-0.243,0,-0.2127,-0.2283,-0.2364,-0.2514,-0.2628,-0.2719,-0.2775,-0.2839,-0.2865,-0.2858,-0.2828,-0.2801,-0.2824,-0.2796,-0.2748,-0.2677,-0.2614,-0.2707,-0.2449,-0.2443,-0.2386,-0.2337,-0.2239,-0.2088,-0.2413,-0.2411,-0.2408,0,-0.2169,-0.2285,-0.243,-0.2597,-0.2645,-0.2714,-0.2802,-0.2864,-0.2861,-0.2859,-0.2812,-0.2772,-0.2729,-0.2723,-0.2576,-0.263,-0.2551,-0.2491,-0.2481,-0.2385,-0.2351,-0.2131,-0.2044,-0.2024,-0.2382,-0.2384,-0.2386,0,-0.2119,-0.2333,-0.2446,-0.2517,-0.2697,-0.2733,-0.2809,-0.284,-0.2839,-0.283,-0.2777,-0.2723,-0.2655,-0.2553,-0.2471,-0.2501,-0.2286,-0.2287,-0.2154,-0.2151,-0.1995,-0.1983,-0.1848,-0.2143,-0.2143,-0.2143,-0.2144,0,-0.2155,-0.2247,-0.243,-0.2495,-0.2585,-0.271,-0.2736,-0.2786,-0.2783,-0.2724,-0.2746,-0.265,-0.2599,-0.248,-0.2423,-0.2236,-0.2221,-0.2144,-0.2087,-0.2024,-0.2016,-0.1933,-0.1973,-0.2138,-0.2139,-0.214,-0.2141,0,-0.2063,-0.2204,-0.2325,-0.2509,-0.256,-0.2601,-0.2685,-0.267,-0.2703,-0.2616,-0.2595,-0.2553,-0.2418,-0.2358,-0.2193,-0.2136,-0.1942,-0.1925,-0.1894,-0.1836,-0.171,-0.1759,-0.1573,-0.1533,-0.1747,-0.1744,-0.1742,0,-0.2031,-0.2092,-0.2266,-0.2299,-0.2375,-0.2463,-0.2485,-0.2596,-0.2558,-0.2518,-0.2434,-0.2336,-0.2219,-0.2013,-0.1909,-0.177,-0.1795,-0.1603,-0.1642,-0.167,-0.1682,-0.1736,-0.1722,-0.1479,-0.1475,-0.1471,-0.1468,0,-0.1943,-0.1979,-0.2049,-0.2126,-0.2178,-0.2235,-0.2284,-0.2261,-0.2328,-0.2273,-0.2156,-0.208,-0.1924,-0.1745,-0.1621,-0.1534,-0.1573,-0.1527,-0.1521,-0.1431,-0.1508,-0.1453,-0.167,-0.1438,-0.1441,-0.1443,-0.1445,-0.1446,-0.1812,-0.181,-0.1872,-0.192,-0.1965,-0.1968,-0.195,-0.1979,-0.1933,-0.1825,-0.1856,-0.1712,-0.1617,-0.143,-0.1352,-0.1216,-0.1315,-0.117,-0.122,-0.1268,-0.1242,-0.1429,-0.1158,-0.116,-0.1161,-0.1162,-0.1163,0,-0.1665,-0.1661,-0.1674,-0.1714,-0.1668,-0.1772,-0.1764,-0.1707,-0.1607,-0.1566,-0.1468,-0.1332,-0.1175,-0.1128,-0.0998,-0.0927,-0.0938,-0.0917,-0.0967,-0.0961,-0.1056,-0.1058,-0.0794,-0.0794,-0.0794,-0.0794,-0.0794,-0.0794,-0.1586,-0.1529,-0.1535,-0.1421,-0.1425,-0.134,-0.131,-0.125,-0.1206,-0.1064,-0.0992,-0.097,-0.0945,-0.0957,-0.0852,-0.0804,-0.0817,-0.0775,-0.0835,-0.0919,-0.0947,-0.0975,-0.0983,-0.0707,-0.0707,-0.0684,-0.0684,-0.0684]},{"header":{"parameterUnit":"m.s-1","parameterCategory":2,"la1":30.2991,"la2":30.254,"lo1":-89.0895,"lo2":-89.0444,"dy":0.0017,"dx":0.0017,"nx":28,"ny":28,"refTime":"2024-08-20T09:00:00:Z","depth":"0","parameterNumber":3,"parameterNumberName":"V-component_of_CURRENTS"},"data":[0,0,0,0,0,0,0,0,0,0,0,0,0,0,0,0,0,0,0,0,0,0,0,0,0,0,0,0,0,0,0,0,0,0,0,0,0,0,0,0,0,0,0,0,0,0,0,0,0,0,0,0,0,0,0,0,0,0,-0.0392,-0.0393,0,-0.0448,-0.0449,-0.0449,-0.0471,-0.0472,-0.0472,-0.0472,-0.0387,-0.0385,-0.0382,0,0,0,0,0,0,0,0,0,0,0,0,0,-0.0296,-0.0298,-0.0392,-0.0393,-0.0395,-0.0448,-0.0449,-0.0449,-0.0471,-0.0472,-0.0472,-0.0472,-0.0388,-0.0385,-0.0382,0,0,0,0,0,0,0,0,0,0,0,0,0,-0.034,-0.0298,-0.0392,-0.0416,-0.0419,-0.0448,-0.0449,-0.0449,-0.0471,-0.0472,-0.0472,-0.0473,-0.0389,-0.0385,-0.0381,-0.0349,0,0,-0.037,-0.0368,0,0,0,0,0,0,0,0,-0.0337,-0.0342,-0.0411,-0.0414,-0.0418,-0.0457,-0.0384,-0.041,-0.0471,-0.0446,-0.0472,-0.0473,-0.04,-0.0395,-0.0401,-0.0345,-0.0342,-0.0369,-0.0367,-0.0366,-0.0364,0,0,0,0,0,0,0,-0.0334,-0.034,-0.041,-0.0412,-0.0416,-0.0421,-0.0427,-0.0389,-0.0414,-0.0449,-0.0452,-0.0465,-0.04,-0.0404,-0.0398,-0.0341,-0.037,-0.0366,-0.0364,-0.0362,-0.0203,-0.0201,0,0,0,0,0,0,-0.0337,-0.0337,-0.0408,-0.0412,-0.0383,-0.0423,-0.0429,-0.044,-0.0418,-0.0417,-0.0465,-0.0466,-0.0411,-0.0403,-0.0395,-0.0326,-0.0366,-0.0362,-0.036,-0.0205,-0.0203,-0.0201,0,0,0,0,0,0,-0.0334,-0.0342,-0.0406,-0.038,-0.0389,-0.0424,-0.0436,-0.0441,-0.0451,-0.0432,-0.0428,-0.047,-0.0411,-0.0401,-0.0364,-0.0324,-0.036,-0.0357,-0.0208,-0.0204,-0.0202,-0.0206,0,0,0,0,0,0,-0.0331,-0.0341,-0.0343,-0.038,-0.0391,-0.0424,-0.0437,-0.0442,-0.046,-0.0462,-0.0435,-0.0428,-0.041,-0.037,-0.036,-0.0319,-0.0354,-0.021,-0.0206,-0.0203,-0.0209,-0.0204,-0.02,0,0,0,0,0,-0.0327,-0.0344,-0.0343,-0.0352,-0.0395,-0.0424,-0.0429,-0.0453,-0.046,-0.0462,-0.0444,-0.0429,-0.0339,-0.0366,-0.0355,-0.0312,-0.0212,-0.0207,-0.0203,-0.0211,-0.0205,-0.02,0,0,0,0,0,0,-0.0317,-0.0349,-0.0349,-0.0377,-0.0394,-0.043,-0.0444,-0.0453,-0.0443,-0.0442,-0.0419,-0.041,-0.0356,-0.0333,-0.0364,-0.0252,-0.0266,-0.0259,-0.0275,-0.0269,-0.0265,-0.0228,-0.0351,0,0,0,0,0,-0.0312,-0.0329,-0.0354,-0.0377,-0.0385,-0.0409,-0.0423,-0.0436,-0.044,-0.0438,-0.0417,-0.0378,-0.0327,-0.0302,-0.0261,-0.021,-0.0179,-0.0168,-0.0164,-0.016,-0.012,-0.0014,0.0004,-0.0186,-0.0186,-0.0186,0,0,-0.0321,-0.0338,-0.0351,-0.0375,-0.0392,-0.0406,-0.0418,-0.0443,-0.0433,-0.0425,-0.0399,-0.0366,-0.0311,-0.0254,-0.0225,-0.0232,-0.011,-0.0155,-0.0153,-0.0113,-0.0008,0.0011,0.0028,-0.0183,-0.0184,-0.0184,0,0,-0.0359,-0.0354,-0.0384,-0.0392,-0.0415,-0.0412,-0.0417,-0.0438,-0.0421,-0.0399,-0.0373,-0.0306,-0.0268,-0.0196,-0.0159,-0.0097,-0.0091,-0.0098,-0.0044,0.0057,0.0074,0.0089,0.006,0.0073,-0.0094,-0.0094,-0.0094,0,-0.0365,-0.0406,-0.0397,-0.0423,-0.0427,-0.0413,-0.0432,-0.0408,-0.0409,-0.0363,-0.0389,-0.0256,-0.0221,-0.0097,-0.0083,-0.0081,-0.0077,-0.0079,0.0063,0.0079,0.0095,0.0063,0.0077,-0.0094,-0.0094,-0.0094,-0.0094,0,-0.0426,-0.0451,-0.0469,-0.048,-0.0467,-0.0489,-0.0448,-0.0412,-0.0386,-0.0347,-0.0235,-0.0178,-0.0089,-0.0068,-0.0063,0.0079,0.0019,0.0049,0.0044,0.0114,0.0074,0.0089,-0.0093,-0.0093,-0.0093,-0.0093,0,0,-0.0463,-0.0506,-0.051,-0.0515,-0.0499,-0.0493,-0.0435,-0.0365,-0.0299,-0.0248,-0.0155,-0.0045,0.0003,0.0053,0.0089,0.0181,0.0253,0.0153,0.0158,0.0112,0.0374,0.0311,0.032,0.0297,0.0302,0.0306,0.0265,0,-0.0515,-0.0586,-0.0565,-0.0579,-0.0605,-0.0526,-0.0466,-0.0377,-0.0293,-0.0192,-0.0062,0.0024,0.0045,0.0079,0.0188,0.0238,0.0309,0.0256,0.0326,0.0327,0.0258,0.0346,0.0376,0.0344,0.028,0.0283,0.0285,0,-0.0578,-0.0615,-0.0668,-0.0623,-0.0615,-0.0591,-0.045,-0.0396,-0.0219,-0.0149,-0.0004,0.0073,0.0217,0.0221,0.0383,0.0334,0.0369,0.0408,0.0408,0.0384,0.03,0.0287,0.0375,0.0497,0.0308,0.0306,0.0305,0,-0.0629,-0.066,-0.07,-0.0701,-0.0656,-0.061,-0.0547,-0.0386,-0.0312,-0.0122,-0.0069,0.0134,0.0182,0.0326,0.0372,0.0386,0.0507,0.0539,0.0518,0.0506,0.0572,0.056,0.0798,0.0697,0.0698,0.0698,0.0698,0,-0.0697,-0.0718,-0.0732,-0.0758,-0.0734,-0.0662,-0.0576,-0.0472,-0.0323,-0.0242,-0.0064,0.0008,0.0217,0.0293,0.0381,0.0455,0.0511,0.0555,0.0538,0.0556,0.0545,0.0685,0.073,0.0696,0.0696,0.0697,0.0697,0,-0.0759,-0.0787,-0.0825,-0.08,-0.078,-0.0759,-0.0646,-0.0573,-0.0439,-0.0337,-0.0293,-0.0102,0.0004,0.0154,0.0331,0.0414,0.0586,0.0533,0.0465,0.0445,0.059,0.063,0.081,0.0875,0.0555,0.0554,0.0553,0,-0.0802,-0.0849,-0.0871,-0.0887,-0.0882,-0.0838,-0.0796,-0.0652,-0.0587,-0.0425,-0.0397,-0.0262,-0.0152,0.0045,0.0242,0.0395,0.0512,0.0487,0.0595,0.0636,0.067,0.0685,0.0729,0.0622,0.0622,0.0622,0.0622,0,-0.0868,-0.0887,-0.0917,-0.0968,-0.0959,-0.0936,-0.0877,-0.0846,-0.0692,-0.0611,-0.0514,-0.0413,-0.0204,0.003,0.022,0.0322,0.059,0.0487,0.0622,0.084,0.0792,0.0828,0.05,0.062,0.062,0.062,0.062,0.062,-0.0894,-0.0935,-0.0984,-0.1013,-0.102,-0.1018,-0.0982,-0.0921,-0.0841,-0.069,-0.0624,-0.0419,-0.0101,0.022,0.0315,0.0582,0.0581,0.0712,0.0767,0.0785,0.0867,0.0462,0.0517,0.0516,0.0516,0.0516,0.0516,0,-0.0918,-0.096,-0.1009,-0.1047,-0.1063,-0.1052,-0.1012,-0.0955,-0.0878,-0.073,-0.0605,-0.019,0.0109,0.0406,0.0753,0.0887,0.0951,0.0953,0.1058,0.1103,0.0842,0.087,0.0895,0.0895,0.0895,0.0895,0.0895,0.0894,-0.0928,-0.0985,-0.1017,-0.1061,-0.1083,-0.1071,-0.1046,-0.0963,-0.0834,-0.0561,-0.0284,-0.0064,0.0396,0.0862,0.1176,0.1195,0.1353,0.1301,0.1377,0.1267,0.1251,0.1236,0.128,0.1391,0.1391,0.1652,0.1654,0.1656]}],[{"header":{"parameterUnit":"m.s-1","parameterCategory":2,"la1":30.2991,"la2":30.254,"lo1":-89.0895,"lo2":-89.0444,"dy":0.0017,"dx":0.0017,"nx":28,"ny":28,"refTime":"2024-08-20T09:00:00:Z","depth":"2","parameterNumber":2,"parameterNumberName":"U-component_of_CURRENTS"},"data":[0,0,0,0,0,0,0,0,0,0,0,0,0,0,0,0,0,0,0,0,0,0,0,0,0,0,0,0,0,0,0,0,0,0,0,0,0,0,0,0,0,0,0,0,0,0,0,0,0,0,0,0,0,0,0,0,0,0,-0.1975,-0.1975,0,-0.1987,-0.1987,-0.1987,-0.1946,-0.1945,-0.1943,-0.1942,-0.2014,-0.2017,-0.202,0,0,0,0,0,0,0,0,0,0,0,0,0,-0.1916,-0.1918,-0.1975,-0.1975,-0.1975,-0.1987,-0.1987,-0.1987,-0.1946,-0.1945,-0.1943,-0.1941,-0.2013,-0.2016,-0.202,0,0,0,0,0,0,0,0,0,0,0,0,0,-0.1938,-0.1918,-0.1975,-0.1955,-0.1953,-0.1987,-0.1987,-0.1987,-0.1947,-0.1945,-0.1942,-0.1941,-0.2011,-0.2016,-0.2021,-0.2091,0,0,-0.2035,-0.2037,0,0,0,0,0,0,0,0,-0.1937,-0.194,-0.1958,-0.1956,-0.1954,-0.1962,-0.1992,-0.2025,-0.1947,-0.1951,-0.1942,-0.194,-0.2003,-0.2008,-0.2016,-0.2095,-0.2098,-0.2036,-0.2039,-0.2041,-0.2042,0,0,0,0,0,0,0,-0.1935,-0.1939,-0.1981,-0.1958,-0.1956,-0.1945,-0.1946,-0.1998,-0.199,-0.195,-0.1947,-0.1947,-0.2002,-0.2011,-0.2017,-0.2099,-0.2036,-0.204,-0.2043,-0.2045,-0.2227,-0.2229,0,0,0,0,0,0,-0.1934,-0.1938,-0.198,-0.1981,-0.1939,-0.1948,-0.1949,-0.1962,-0.1988,-0.1989,-0.1948,-0.1945,-0.2004,-0.2012,-0.202,-0.2109,-0.2041,-0.2045,-0.2048,-0.2225,-0.2227,-0.2229,0,0,0,0,0,0,-0.1933,-0.1938,-0.198,-0.1958,-0.1962,-0.1951,-0.1966,-0.1964,-0.1982,-0.1986,-0.1988,-0.1969,-0.2003,-0.2013,-0.2077,-0.2111,-0.2047,-0.2052,-0.2223,-0.2226,-0.2228,-0.2286,0,0,0,0,0,0,-0.1931,-0.1938,-0.1953,-0.1958,-0.1963,-0.2019,-0.1968,-0.1965,-0.1983,-0.1979,-0.2005,-0.2008,-0.2002,-0.207,-0.2082,-0.2117,-0.2055,-0.222,-0.2224,-0.2227,-0.2282,-0.2291,-0.2298,0,0,0,0,0,-0.1929,-0.1949,-0.1955,-0.1959,-0.1983,-0.2021,-0.2024,-0.2008,-0.1987,-0.2014,-0.2023,-0.2008,-0.2101,-0.2077,-0.209,-0.2127,-0.2218,-0.2223,-0.2227,-0.2278,-0.2289,-0.2298,0,0,0,0,0,0,-0.192,-0.1947,-0.1952,-0.1977,-0.201,-0.2014,-0.2026,-0.2028,-0.2057,-0.2044,-0.2048,-0.2055,-0.2119,-0.2125,-0.2098,-0.2189,-0.2153,-0.216,-0.2187,-0.2198,-0.2206,-0.219,-0.2059,0,0,0,0,0,-0.1932,-0.1953,-0.1987,-0.2005,-0.2025,-0.2036,-0.2049,-0.2045,-0.2065,-0.2073,-0.2093,-0.2113,-0.2151,-0.2174,-0.2205,-0.2273,-0.222,-0.2301,-0.2309,-0.2316,-0.2313,-0.2254,-0.2255,-0.2244,-0.2244,-0.2244,0,0,-0.1926,-0.1945,-0.1955,-0.2005,-0.2021,-0.2059,-0.2039,-0.2064,-0.2094,-0.2082,-0.2133,-0.2153,-0.2176,-0.2235,-0.2264,-0.2244,-0.2294,-0.2322,-0.2327,-0.232,-0.2258,-0.2259,-0.2259,-0.2247,-0.2246,-0.2246,0,0,-0.1929,-0.1956,-0.1983,-0.202,-0.2058,-0.2074,-0.2092,-0.2123,-0.2139,-0.2204,-0.219,-0.2228,-0.2299,-0.2307,-0.2324,-0.2406,-0.2341,-0.2422,-0.2454,-0.2398,-0.2397,-0.2395,-0.2327,-0.2319,-0.2424,-0.2424,-0.2424,0,-0.1924,-0.1964,-0.1997,-0.2039,-0.2061,-0.2089,-0.2126,-0.2162,-0.2207,-0.2222,-0.2226,-0.2295,-0.2328,-0.2372,-0.2405,-0.2424,-0.237,-0.2412,-0.2404,-0.2402,-0.2399,-0.2329,-0.232,-0.2428,-0.2427,-0.2427,-0.2427,0,-0.1953,-0.1992,-0.2012,-0.2075,-0.2112,-0.2146,-0.22,-0.2237,-0.2262,-0.2285,-0.2342,-0.2379,-0.2406,-0.2437,-0.2459,-0.2473,-0.2433,-0.2418,-0.2369,-0.2403,-0.2328,-0.2317,-0.2432,-0.2431,-0.243,-0.2429,0,0,-0.1924,-0.2016,-0.2022,-0.2053,-0.2131,-0.2156,-0.2221,-0.2279,-0.2295,-0.2357,-0.2375,-0.2467,-0.2465,-0.2485,-0.2503,-0.2483,-0.2444,-0.2456,-0.2452,-0.2371,-0.2298,-0.2225,-0.2205,-0.2416,-0.2415,-0.2414,-0.225,0,-0.194,-0.2006,-0.2055,-0.2114,-0.2154,-0.2202,-0.2259,-0.2307,-0.2345,-0.2374,-0.2412,-0.2448,-0.249,-0.25,-0.2492,-0.2454,-0.2418,-0.2489,-0.2292,-0.2286,-0.2202,-0.2191,-0.2064,-0.1904,-0.2238,-0.2236,-0.2235,0,-0.1959,-0.1999,-0.2058,-0.2128,-0.215,-0.2187,-0.2239,-0.2296,-0.2349,-0.2379,-0.2407,-0.2427,-0.2447,-0.2462,-0.2392,-0.2429,-0.2376,-0.2337,-0.2329,-0.223,-0.2192,-0.1926,-0.187,-0.2215,-0.2217,-0.2218,-0.222,0,-0.1914,-0.1999,-0.2037,-0.2066,-0.2155,-0.2176,-0.2221,-0.2282,-0.2305,-0.2364,-0.2352,-0.239,-0.2374,-0.2333,-0.23,-0.2329,-0.2181,-0.2195,-0.207,-0.2063,-0.1901,-0.1882,-0.2115,-0.2116,-0.2116,-0.2116,-0.2117,0,-0.1916,-0.1941,-0.2012,-0.2035,-0.2053,-0.214,-0.2157,-0.2211,-0.2259,-0.2262,-0.2338,-0.2312,-0.2336,-0.2273,-0.2252,-0.2117,-0.213,-0.2059,-0.2012,-0.192,-0.1906,-0.2141,-0.2147,-0.211,-0.2112,-0.2113,-0.2114,0,-0.186,-0.1922,-0.1951,-0.2025,-0.2034,-0.2044,-0.2091,-0.2102,-0.2168,-0.216,-0.2173,-0.2213,-0.2148,-0.2136,-0.2053,-0.2016,-0.1925,-0.1872,-0.1766,-0.1711,-0.1855,-0.1865,-0.1699,-0.1695,-0.1691,-0.1689,-0.1686,0,-0.1836,-0.1852,-0.1898,-0.1895,-0.192,-0.1941,-0.195,-0.2038,-0.2049,-0.2083,-0.2062,-0.2025,-0.1985,-0.184,-0.1781,-0.1681,-0.1786,-0.1506,-0.1556,-0.1838,-0.181,-0.1826,-0.1841,-0.1357,-0.1352,-0.1348,-0.1345,0,-0.1761,-0.1779,-0.1793,-0.1787,-0.1788,-0.1789,-0.1815,-0.1808,-0.1907,-0.1891,-0.1869,-0.1839,-0.1734,-0.1587,-0.1484,-0.1427,-0.1525,-0.142,-0.1695,-0.1503,-0.1508,-0.1484,-0.151,-0.1309,-0.1313,-0.1315,-0.1317,-0.1319,-0.1671,-0.1651,-0.1666,-0.1647,-0.1651,-0.1638,-0.1596,-0.1634,-0.162,-0.1593,-0.1642,-0.1538,-0.1525,-0.1293,-0.12,-0.1132,-0.1253,-0.121,-0.1225,-0.1244,-0.1255,-0.1255,-0.101,-0.1011,-0.1013,-0.1014,-0.1015,0,-0.154,-0.1534,-0.1521,-0.1498,-0.1456,-0.1504,-0.1494,-0.1441,-0.1378,-0.1379,-0.1329,-0.1158,-0.1042,-0.1031,-0.0861,-0.0825,-0.0849,-0.0797,-0.0839,-0.0874,-0.0905,-0.0903,-0.0562,-0.056,-0.0559,-0.0558,0,0,-0.1471,-0.141,-0.1408,-0.1299,-0.1286,-0.119,-0.1159,-0.1107,-0.108,-0.0991,-0.0929,-0.0971,-0.0994,-0.0776,-0.0727,-0.0614,-0.0743,-0.058,-0.0944,-0.1029,-0.1059,-0.1141,-0.1176,0,0,0,0,0]},{"header":{"parameterUnit":"m.s-1","parameterCategory":2,"la1":30.2991,"la2":30.254,"lo1":-89.0895,"lo2":-89.0444,"dy":0.0017,"dx":0.0017,"nx":28,"ny":28,"refTime":"2024-08-20T09:00:00:Z","depth":"2","parameterNumber":3,"parameterNumberName":"V-component_of_CURRENTS"},"data":[0,0,0,0,0,0,0,0,0,0,0,0,0,0,0,0,0,0,0,0,0,0,0,0,0,0,0,0,0,0,0,0,0,0,0,0,0,0,0,0,0,0,0,0,0,0,0,0,0,0,0,0,0,0,0,0,0,0,-0.0215,-0.0215,0,-0.0214,-0.0214,-0.0214,-0.0184,-0.0183,-0.0182,-0.0182,-0.0112,-0.0111,-0.011,0,0,0,0,0,0,0,0,0,0,0,0,0,-0.0206,-0.0206,-0.0215,-0.0215,-0.0215,-0.0214,-0.0214,-0.0214,-0.0184,-0.0183,-0.0182,-0.0181,-0.0113,-0.0111,-0.011,0,0,0,0,0,0,0,0,0,0,0,0,0,-0.0206,-0.0206,-0.0215,-0.0201,-0.02,-0.0214,-0.0214,-0.0214,-0.0184,-0.0183,-0.0182,-0.0181,-0.0113,-0.0111,-0.0109,-0.0118,0,0,-0.0104,-0.0103,0,0,0,0,0,0,0,0,-0.0206,-0.0207,-0.0203,-0.0202,-0.0201,-0.0199,-0.0186,-0.0179,-0.0184,-0.0189,-0.0182,-0.0181,-0.0137,-0.0133,-0.0134,-0.0114,-0.0111,-0.0104,-0.0103,-0.0102,-0.0101,0,0,0,0,0,0,0,-0.0206,-0.0207,-0.0213,-0.0203,-0.0202,-0.02,-0.0199,-0.0184,-0.0166,-0.0188,-0.0186,-0.0189,-0.0135,-0.0136,-0.0132,-0.011,-0.0104,-0.0102,-0.0101,-0.01,-0.0082,-0.0083,0,0,0,0,0,0,-0.021,-0.0207,-0.0213,-0.0213,-0.0203,-0.0201,-0.02,-0.02,-0.0167,-0.0162,-0.019,-0.0187,-0.0139,-0.0134,-0.0129,-0.0126,-0.0102,-0.01,-0.0099,-0.0081,-0.0082,-0.0083,0,0,0,0,0,0,-0.021,-0.021,-0.0213,-0.0211,-0.0212,-0.0203,-0.0203,-0.02,-0.0204,-0.017,-0.0163,-0.0197,-0.0138,-0.0132,-0.0122,-0.0124,-0.0099,-0.0097,-0.0081,-0.0082,-0.0082,-0.0127,0,0,0,0,0,0,-0.0209,-0.021,-0.0214,-0.0211,-0.0212,-0.0231,-0.0204,-0.0201,-0.0208,-0.0205,-0.0174,-0.0166,-0.0137,-0.0125,-0.012,-0.0121,-0.0096,-0.008,-0.0081,-0.0082,-0.0125,-0.013,-0.0134,0,0,0,0,0,-0.0209,-0.0227,-0.0214,-0.0215,-0.0216,-0.0232,-0.0233,-0.0221,-0.0209,-0.022,-0.0195,-0.0167,-0.0128,-0.0124,-0.0118,-0.0118,-0.0079,-0.0081,-0.0082,-0.0123,-0.0129,-0.0134,0,0,0,0,0,0,-0.0232,-0.0226,-0.0211,-0.0226,-0.0229,-0.0227,-0.0241,-0.0231,-0.0222,-0.0216,-0.0179,-0.017,-0.016,-0.014,-0.0136,-0.0118,-0.0098,-0.0098,-0.0131,-0.0136,-0.014,-0.0127,-0.0094,0,0,0,0,0,-0.0237,-0.0246,-0.0238,-0.0254,-0.0255,-0.0248,-0.0254,-0.0246,-0.0238,-0.0234,-0.021,-0.0184,-0.0162,-0.0151,-0.013,-0.0126,-0.0089,-0.0122,-0.0126,-0.013,-0.0116,-0.005,-0.0046,-0.0088,-0.0087,-0.0087,0,0,-0.0253,-0.0251,-0.0256,-0.0259,-0.026,-0.0275,-0.0249,-0.0265,-0.0273,-0.0227,-0.023,-0.0199,-0.0166,-0.0155,-0.0149,-0.0138,-0.0108,-0.0132,-0.0135,-0.0118,-0.0051,-0.0047,-0.0043,-0.0088,-0.0088,-0.0088,0,0,-0.0302,-0.0285,-0.031,-0.0313,-0.0317,-0.0306,-0.0313,-0.0309,-0.03,-0.0301,-0.0264,-0.0233,-0.0216,-0.018,-0.0162,-0.018,-0.0133,-0.0181,-0.0188,-0.0126,-0.0121,-0.0117,-0.0102,-0.0096,-0.0182,-0.0182,-0.0182,0,-0.0318,-0.0347,-0.0324,-0.035,-0.0356,-0.0323,-0.0352,-0.0342,-0.0333,-0.0321,-0.0308,-0.0249,-0.0222,-0.0188,-0.019,-0.0187,-0.0158,-0.0172,-0.0129,-0.0124,-0.0118,-0.0104,-0.0096,-0.0184,-0.0184,-0.0184,-0.0184,0,-0.0384,-0.0405,-0.0425,-0.0435,-0.0435,-0.0459,-0.0434,-0.0429,-0.0406,-0.0382,-0.0345,-0.0295,-0.0252,-0.0243,-0.022,-0.0171,-0.0169,-0.0142,-0.0113,-0.0116,-0.0102,-0.0093,-0.0188,-0.0187,-0.0186,-0.0186,0,0,-0.0421,-0.0463,-0.0468,-0.0487,-0.0481,-0.0489,-0.0492,-0.0478,-0.0465,-0.0429,-0.0399,-0.0351,-0.0297,-0.0272,-0.023,-0.0172,-0.0122,-0.0142,-0.0137,-0.0122,-0.0013,0.001,0.0022,-0.0081,-0.0079,-0.0077,-0.0033,0,-0.048,-0.0553,-0.0545,-0.0595,-0.0626,-0.0586,-0.0584,-0.0557,-0.0517,-0.0474,-0.0396,-0.035,-0.0317,-0.0282,-0.022,-0.0137,-0.0094,-0.0138,-0.0015,-0.0012,0.0015,0.0036,0.0034,0.0077,-0.0024,-0.0022,-0.0021,0,-0.0543,-0.0582,-0.0654,-0.0671,-0.0675,-0.0686,-0.0656,-0.0648,-0.0571,-0.0532,-0.0457,-0.0387,-0.0299,-0.0261,-0.0124,-0.0153,-0.0087,-0.0026,-0.0022,0.0031,0.0031,0.0072,0.0098,-0.0006,-0.0007,-0.0008,-0.0009,0,-0.0591,-0.0649,-0.0708,-0.072,-0.0733,-0.0739,-0.0726,-0.0669,-0.0646,-0.0555,-0.0516,-0.04,-0.033,-0.0221,-0.0099,-0.0105,0.0057,0.0061,0.0133,0.0132,0.0173,0.0174,0.0162,0.0162,0.0161,0.0161,0.0161,0,-0.0659,-0.0701,-0.0738,-0.0773,-0.0806,-0.0787,-0.0786,-0.0752,-0.0683,-0.0636,-0.0542,-0.0472,-0.0307,-0.0195,-0.0098,0.0048,0.0055,0.0145,0.0164,0.0151,0.0149,0.0121,0.0115,0.0163,0.0163,0.0162,0.0162,0,-0.0713,-0.0745,-0.0807,-0.0836,-0.084,-0.0859,-0.0832,-0.0817,-0.0755,-0.0687,-0.0655,-0.0511,-0.0362,-0.0221,-0.0033,0.0049,0.0182,0.0226,0.0176,0.0191,0.0202,0.0194,0.0305,0.0307,0.0308,0.0309,0.031,0,-0.0752,-0.0799,-0.085,-0.0873,-0.0892,-0.0907,-0.0904,-0.0856,-0.0824,-0.0705,-0.0666,-0.0515,-0.0384,-0.013,0.0054,0.0222,0.0216,0.0306,0.031,0.0219,0.0226,0.0216,0.0205,0.0318,0.0319,0.032,0.0321,0,-0.0814,-0.0831,-0.0874,-0.0925,-0.0946,-0.0959,-0.0948,-0.0932,-0.085,-0.0785,-0.0658,-0.0548,-0.0296,-0.0067,0.0151,0.0243,0.0282,0.0328,0.0282,0.0285,0.0237,0.0242,0.0231,0.0328,0.0327,0.0326,0.0326,0.0326,-0.0836,-0.0875,-0.0923,-0.0964,-0.0987,-0.0992,-0.0984,-0.0941,-0.0883,-0.0745,-0.0646,-0.0438,-0.0248,0.0104,0.0236,0.0363,0.0353,0.0391,0.0387,0.0382,0.0379,0.0337,0.0442,0.0442,0.0442,0.0442,0.0442,0,-0.086,-0.0901,-0.0949,-0.0995,-0.1015,-0.1019,-0.0992,-0.0949,-0.0865,-0.0705,-0.0559,-0.0301,-0.0055,0.013,0.0351,0.0459,0.0435,0.0463,0.0419,0.0412,0.0406,0.0403,0.0473,0.0473,0.0474,0.0474,0,0,-0.0873,-0.0927,-0.0956,-0.1001,-0.1024,-0.1023,-0.1,-0.0914,-0.0785,-0.0613,-0.0429,-0.0224,0.0004,0.0164,0.0288,0.0398,0.0368,0.0396,0.0362,0.0288,0.0281,0.036,0.0347,0,0,0,0,0]}],[{"header":{"parameterUnit":"m.s-1","parameterCategory":2,"la1":30.2991,"la2":30.254,"lo1":-89.0895,"lo2":-89.0444,"dy":0.0017,"dx":0.0017,"nx":28,"ny":28,"refTime":"2024-08-20T09:00:00:Z","depth":"4","parameterNumber":2,"parameterNumberName":"U-component_of_CURRENTS"},"data":[0,0,0,0,0,0,0,0,0,0,0,0,0,0,0,0,0,0,0,0,0,0,0,0,0,0,0,0,0,0,0,0,0,0,0,0,0,0,0,0,0,0,0,0,0,0,0,0,0,0,0,0,0,0,0,0,0,0,-0.1302,-0.1302,0,-0.1316,-0.1317,-0.1317,-0.1306,-0.1305,-0.1305,-0.1305,-0.1329,-0.133,-0.1331,0,0,0,0,0,0,0,0,0,0,0,0,0,-0.1287,-0.1287,-0.1302,-0.1302,-0.1303,-0.1316,-0.1317,-0.1317,-0.1306,-0.1305,-0.1305,-0.1304,-0.1328,-0.133,-0.1331,0,0,0,0,0,0,0,0,0,0,0,0,0,-0.1295,-0.1287,-0.1302,-0.13,-0.1299,-0.1316,-0.1317,-0.1317,-0.1306,-0.1305,-0.1305,-0.1304,-0.1328,-0.133,-0.1331,-0.1352,0,0,-0.1336,-0.1336,0,0,0,0,0,0,0,0,-0.1295,-0.1296,-0.13,-0.13,-0.13,-0.131,-0.132,-0.1329,-0.1306,-0.1302,-0.1305,-0.1304,-0.1324,-0.1326,-0.1329,-0.1353,-0.1354,-0.1336,-0.1337,-0.1337,-0.1338,0,0,0,0,0,0,0,-0.1294,-0.1295,-0.1307,-0.13,-0.13,-0.1305,-0.1305,-0.1322,-0.1316,-0.1303,-0.1302,-0.1306,-0.1324,-0.1327,-0.1329,-0.1354,-0.1336,-0.1337,-0.1338,-0.1339,-0.1427,-0.1428,0,0,0,0,0,0,-0.1294,-0.1295,-0.1306,-0.1307,-0.1297,-0.1306,-0.1306,-0.1306,-0.1316,-0.1317,-0.1306,-0.1305,-0.1325,-0.1327,-0.133,-0.1393,-0.1337,-0.1339,-0.134,-0.1426,-0.1427,-0.1429,0,0,0,0,0,0,-0.1294,-0.1295,-0.1306,-0.1302,-0.1304,-0.1307,-0.1307,-0.1307,-0.1324,-0.1318,-0.1319,-0.1325,-0.1324,-0.1328,-0.1361,-0.1392,-0.1339,-0.1341,-0.1424,-0.1426,-0.1428,-0.1495,0,0,0,0,0,0,-0.1293,-0.1294,-0.1315,-0.1302,-0.1304,-0.1335,-0.1308,-0.1308,-0.1327,-0.1326,-0.1335,-0.1335,-0.1324,-0.1359,-0.1362,-0.1393,-0.1342,-0.1422,-0.1425,-0.1427,-0.1491,-0.1499,-0.1506,0,0,0,0,0,-0.1292,-0.1314,-0.1316,-0.1319,-0.1325,-0.1337,-0.134,-0.1338,-0.1328,-0.1349,-0.135,-0.1336,-0.1378,-0.1361,-0.1365,-0.1397,-0.1421,-0.1424,-0.1427,-0.1487,-0.1497,-0.1506,0,0,0,0,0,0,-0.1316,-0.1315,-0.1316,-0.1337,-0.1348,-0.1336,-0.1362,-0.1353,-0.137,-0.1373,-0.1358,-0.136,-0.14,-0.1392,-0.1374,-0.143,-0.1396,-0.14,-0.144,-0.145,-0.1457,-0.1439,-0.1343,0,0,0,0,0,-0.1333,-0.1349,-0.1348,-0.1368,-0.1379,-0.1375,-0.1386,-0.1381,-0.1385,-0.1392,-0.1399,-0.1405,-0.1415,-0.1427,-0.1438,-0.1474,-0.1446,-0.1496,-0.1504,-0.151,-0.1499,-0.1482,-0.1486,-0.144,-0.144,-0.144,0,0,-0.1347,-0.135,-0.136,-0.1376,-0.1385,-0.1402,-0.1381,-0.1404,-0.1412,-0.1394,-0.1428,-0.1438,-0.1431,-0.1468,-0.1485,-0.1466,-0.1514,-0.1514,-0.152,-0.1504,-0.1485,-0.149,-0.1493,-0.1442,-0.1441,-0.1441,0,0,-0.1372,-0.139,-0.1411,-0.1425,-0.1446,-0.1443,-0.1453,-0.1461,-0.1467,-0.1499,-0.1484,-0.1508,-0.1536,-0.1531,-0.153,-0.1587,-0.1556,-0.1603,-0.1627,-0.1612,-0.1615,-0.1617,-0.1607,-0.1607,-0.1605,-0.1605,-0.1605,0,-0.1393,-0.1407,-0.1422,-0.1445,-0.1453,-0.1462,-0.1477,-0.149,-0.1507,-0.1505,-0.1521,-0.1543,-0.1558,-0.1563,-0.1596,-0.1603,-0.159,-0.1594,-0.162,-0.1622,-0.1623,-0.1611,-0.1611,-0.1609,-0.1608,-0.1608,-0.1608,0,-0.1419,-0.1444,-0.1461,-0.1486,-0.1504,-0.1522,-0.1533,-0.1557,-0.1568,-0.1565,-0.159,-0.161,-0.1612,-0.1638,-0.1642,-0.1661,-0.1649,-0.1633,-0.1593,-0.1631,-0.1617,-0.1615,-0.1614,-0.1613,-0.1612,-0.1611,0,0,-0.1414,-0.1467,-0.1474,-0.148,-0.152,-0.1522,-0.1558,-0.1565,-0.1561,-0.1605,-0.1596,-0.1649,-0.1653,-0.1652,-0.1662,-0.167,-0.1697,-0.167,-0.1667,-0.1652,-0.1669,-0.156,-0.1548,-0.1688,-0.1688,-0.1687,-0.1662,0,-0.1424,-0.1459,-0.1486,-0.1511,-0.152,-0.1543,-0.1561,-0.1573,-0.159,-0.1597,-0.1612,-0.1625,-0.1658,-0.167,-0.1684,-0.1692,-0.1693,-0.1705,-0.1639,-0.1637,-0.1529,-0.1542,-0.1687,-0.1661,-0.166,-0.166,-0.166,0,-0.1429,-0.1445,-0.1477,-0.149,-0.1497,-0.1519,-0.1523,-0.1539,-0.1556,-0.1571,-0.1589,-0.1602,-0.1635,-0.1652,-0.1668,-0.1677,-0.168,-0.1683,-0.1681,-0.1547,-0.1524,-0.161,-0.1656,-0.1657,-0.1657,-0.1657,-0.1657,0,-0.1386,-0.1426,-0.1443,-0.1455,-0.1488,-0.1498,-0.1509,-0.153,-0.1527,-0.1556,-0.1568,-0.1587,-0.1611,-0.1615,-0.1654,-0.1663,-0.1655,-0.1654,-0.1548,-0.1541,-0.1617,-0.1615,-0.164,-0.164,-0.164,-0.164,-0.164,0,-0.1362,-0.1373,-0.1425,-0.1434,-0.1423,-0.1463,-0.1456,-0.1474,-0.1496,-0.1497,-0.1552,-0.1559,-0.1608,-0.1618,-0.1634,-0.1585,-0.1634,-0.154,-0.1518,-0.165,-0.1652,-0.1617,-0.1615,-0.1639,-0.1639,-0.1639,-0.1639,0,-0.1311,-0.1359,-0.1368,-0.1405,-0.1409,-0.1401,-0.1416,-0.141,-0.1456,-0.1465,-0.1481,-0.154,-0.1557,-0.1578,-0.1587,-0.1548,-0.1517,-0.1484,-0.1629,-0.1618,-0.1419,-0.1421,-0.1345,-0.1341,-0.1337,-0.1334,-0.1332,0,-0.1281,-0.1292,-0.1334,-0.1335,-0.1356,-0.1351,-0.1348,-0.138,-0.1388,-0.1449,-0.1453,-0.1485,-0.1518,-0.1431,-0.1472,-0.1437,-0.1429,-0.1398,-0.1403,-0.1397,-0.1385,-0.1392,-0.1399,-0.1326,-0.1325,-0.1324,-0.1323,0,-0.1207,-0.1248,-0.1258,-0.1267,-0.1273,-0.1258,-0.1271,-0.1259,-0.1315,-0.1374,-0.1376,-0.1365,-0.1368,-0.1362,-0.1335,-0.1322,-0.1408,-0.136,-0.1368,-0.1372,-0.1373,-0.1366,-0.1377,-0.1311,-0.1312,-0.1314,-0.1314,0,-0.1147,-0.1138,-0.1173,-0.1159,-0.118,-0.1166,-0.1174,-0.1181,-0.1179,-0.1267,-0.1269,-0.1312,-0.1367,-0.1301,-0.1289,-0.1247,-0.1229,-0.1191,-0.1207,-0.1221,-0.119,-0.1174,-0.1017,0,0,0,0,0,-0.1062,-0.1048,-0.1051,-0.1038,-0.1071,-0.1073,-0.1123,-0.1149,-0.1214,-0.1183,-0.1215,-0.1216,-0.118,-0.12,-0.1128,-0.1223,-0.1231,-0.1133,-0.1197,-0.1241,-0.1256,-0.1229,0,0,0,0,0,0,-0.1006,-0.1011,-0.1012,-0.0946,-0.0925,-0.0932,-0.0964,-0.1015,-0.1002,-0.1086,-0.1071,-0.1129,-0.1111,-0.1193,-0.1097,-0.11,-0.1112,-0.1156,-0.1152,-0.1233,-0.1246,-0.1258,-0.1236,0,0,0,0,0]},{"header":{"parameterUnit":"m.s-1","parameterCategory":2,"la1":30.2991,"la2":30.254,"lo1":-89.0895,"lo2":-89.0444,"dy":0.0017,"dx":0.0017,"nx":28,"ny":28,"refTime":"2024-08-20T09:00:00:Z","depth":"4","parameterNumber":3,"parameterNumberName":"V-component_of_CURRENTS"},"data":[0,0,0,0,0,0,0,0,0,0,0,0,0,0,0,0,0,0,0,0,0,0,0,0,0,0,0,0,0,0,0,0,0,0,0,0,0,0,0,0,0,0,0,0,0,0,0,0,0,0,0,0,0,0,0,0,0,0,-0.0136,-0.0137,0,-0.0143,-0.0143,-0.0143,-0.0122,-0.0122,-0.0121,-0.012,-0.0107,-0.0108,-0.0108,0,0,0,0,0,0,0,0,0,0,0,0,0,-0.0135,-0.0135,-0.0136,-0.0137,-0.0137,-0.0143,-0.0143,-0.0143,-0.0122,-0.0122,-0.0121,-0.012,-0.0107,-0.0108,-0.0108,0,0,0,0,0,0,0,0,0,0,0,0,0,-0.0138,-0.0135,-0.0136,-0.0127,-0.0126,-0.0143,-0.0143,-0.0143,-0.0122,-0.0122,-0.0121,-0.012,-0.0107,-0.0108,-0.0108,-0.0128,0,0,-0.0109,-0.0109,0,0,0,0,0,0,0,0,-0.0138,-0.0138,-0.0128,-0.0128,-0.0127,-0.0131,-0.0138,-0.0137,-0.0123,-0.0124,-0.012,-0.0119,-0.0114,-0.0114,-0.0117,-0.0128,-0.0127,-0.0109,-0.0109,-0.0109,-0.0109,0,0,0,0,0,0,0,-0.0137,-0.0138,-0.0139,-0.0129,-0.0128,-0.0133,-0.0132,-0.0138,-0.0124,-0.0124,-0.0122,-0.0124,-0.0114,-0.0117,-0.0117,-0.0127,-0.0109,-0.0109,-0.0109,-0.011,-0.016,-0.0161,0,0,0,0,0,0,-0.0137,-0.0137,-0.0139,-0.0139,-0.013,-0.0134,-0.0132,-0.0131,-0.0124,-0.0122,-0.0124,-0.0123,-0.0117,-0.0116,-0.0116,-0.0153,-0.0109,-0.011,-0.011,-0.0159,-0.0161,-0.0162,0,0,0,0,0,0,-0.0137,-0.0137,-0.0138,-0.0139,-0.0139,-0.0134,-0.0132,-0.0131,-0.0136,-0.0125,-0.0122,-0.013,-0.0116,-0.0116,-0.0121,-0.0151,-0.011,-0.011,-0.0158,-0.016,-0.0161,-0.0217,0,0,0,0,0,0,-0.0136,-0.0136,-0.0139,-0.0139,-0.0139,-0.0156,-0.0133,-0.0132,-0.0138,-0.0136,-0.0129,-0.0127,-0.0115,-0.0121,-0.0122,-0.0151,-0.011,-0.0156,-0.0159,-0.0161,-0.0214,-0.0221,-0.0226,0,0,0,0,0,-0.0136,-0.015,-0.0139,-0.014,-0.0141,-0.0157,-0.0158,-0.0151,-0.0139,-0.015,-0.0139,-0.0127,-0.0135,-0.0122,-0.0123,-0.0153,-0.0155,-0.0158,-0.016,-0.0211,-0.0219,-0.0226,0,0,0,0,0,0,-0.0159,-0.0149,-0.0137,-0.0148,-0.0153,-0.0153,-0.0166,-0.0158,-0.0159,-0.0155,-0.0138,-0.0136,-0.0154,-0.0145,-0.0131,-0.0174,-0.0146,-0.0149,-0.0184,-0.0192,-0.0198,-0.0218,-0.0111,0,0,0,0,0,-0.0163,-0.0168,-0.016,-0.0174,-0.0175,-0.017,-0.0176,-0.017,-0.0169,-0.0169,-0.0161,-0.0158,-0.0168,-0.0171,-0.0174,-0.0196,-0.0162,-0.0217,-0.0223,-0.0229,-0.0246,-0.0231,-0.0237,-0.017,-0.017,-0.017,0,0,-0.0178,-0.0173,-0.0178,-0.0179,-0.0181,-0.02,-0.0172,-0.0187,-0.0207,-0.0168,-0.0191,-0.018,-0.0178,-0.0201,-0.021,-0.0196,-0.022,-0.0232,-0.0236,-0.0251,-0.0234,-0.0241,-0.0247,-0.0172,-0.0172,-0.0171,0,0,-0.0221,-0.0205,-0.0225,-0.0229,-0.0233,-0.0228,-0.0233,-0.0232,-0.0234,-0.025,-0.0232,-0.024,-0.0244,-0.0256,-0.0261,-0.0307,-0.0253,-0.0303,-0.0352,-0.0338,-0.0343,-0.0347,-0.0266,-0.0263,-0.0306,-0.0306,-0.0306,0,-0.0237,-0.026,-0.0238,-0.0261,-0.0272,-0.0244,-0.0275,-0.0279,-0.0279,-0.0288,-0.0264,-0.0281,-0.028,-0.0319,-0.0335,-0.0325,-0.0276,-0.0322,-0.0345,-0.0349,-0.0353,-0.0269,-0.0265,-0.0309,-0.0309,-0.0308,-0.0308,0,-0.0293,-0.0313,-0.033,-0.0343,-0.0352,-0.0375,-0.0369,-0.0377,-0.0367,-0.0365,-0.0387,-0.0376,-0.0386,-0.0389,-0.0378,-0.0412,-0.0351,-0.0352,-0.0325,-0.0363,-0.0271,-0.0266,-0.0313,-0.0312,-0.0311,-0.0311,0,0,-0.0321,-0.0361,-0.0367,-0.0388,-0.0395,-0.0409,-0.044,-0.046,-0.0475,-0.047,-0.0492,-0.0516,-0.0492,-0.0498,-0.048,-0.0473,-0.0445,-0.0426,-0.0424,-0.0341,-0.0351,-0.0301,-0.0288,-0.044,-0.0441,-0.0442,-0.0258,0,-0.0372,-0.0437,-0.0439,-0.0497,-0.0527,-0.0512,-0.0543,-0.0552,-0.0543,-0.055,-0.0545,-0.0554,-0.0538,-0.0532,-0.0531,-0.0467,-0.0441,-0.0491,-0.0331,-0.0325,-0.0275,-0.0286,-0.0444,-0.0254,-0.0253,-0.0252,-0.0251,0,-0.0422,-0.0459,-0.0531,-0.0572,-0.0582,-0.061,-0.0633,-0.0653,-0.0655,-0.0647,-0.0649,-0.0619,-0.0616,-0.0593,-0.0511,-0.0533,-0.0458,-0.0401,-0.0393,-0.0332,-0.0268,-0.022,-0.0241,-0.0241,-0.0242,-0.0243,-0.0244,0,-0.0453,-0.0518,-0.0579,-0.0595,-0.0638,-0.0667,-0.0681,-0.0689,-0.0698,-0.0698,-0.0679,-0.0671,-0.0633,-0.0579,-0.0458,-0.048,-0.0329,-0.0343,-0.0219,-0.0211,-0.0283,-0.0281,-0.0295,-0.0295,-0.0295,-0.0296,-0.0296,0,-0.0501,-0.0548,-0.0602,-0.0635,-0.0693,-0.0705,-0.0747,-0.0754,-0.0755,-0.0746,-0.0727,-0.069,-0.0629,-0.0528,-0.045,-0.0294,-0.0316,-0.0227,-0.0179,-0.0303,-0.0305,-0.0275,-0.0275,-0.0289,-0.029,-0.0292,-0.0293,0,-0.053,-0.057,-0.0637,-0.0697,-0.0715,-0.0752,-0.0781,-0.0796,-0.0788,-0.0767,-0.0762,-0.0686,-0.055,-0.0448,-0.0311,-0.0252,-0.0134,-0.0073,-0.0153,-0.0112,-0.0019,-0.0025,0.0069,0.0072,0.0074,0.0077,0.0078,0,-0.0552,-0.0595,-0.0673,-0.0705,-0.0737,-0.0785,-0.0808,-0.082,-0.0812,-0.0744,-0.072,-0.0595,-0.0527,-0.0266,-0.0191,-0.0014,-0.0009,0.0068,-0.0054,-0.0028,0.0009,0.0,-0.0008,0.0082,0.0083,0.0083,0.0084,0,-0.0586,-0.0617,-0.0666,-0.0732,-0.0773,-0.0808,-0.0829,-0.0822,-0.0798,-0.0789,-0.065,-0.0533,-0.0362,-0.0224,-0.0068,0.0038,0.001,0.0093,0.0087,-0.0028,-0.0011,0.0021,0.001,0.0092,0.0091,0.009,0.009,0,-0.0596,-0.0633,-0.0694,-0.0744,-0.0794,-0.0807,-0.0822,-0.078,-0.0766,-0.0679,-0.0622,-0.0464,-0.0377,-0.019,-0.0056,0.0062,0.0056,0.0061,0.0056,0.0048,-0.0042,-0.0029,0.011,0,0,0,0,0,-0.06,-0.064,-0.0694,-0.0749,-0.0793,-0.0815,-0.082,-0.0818,-0.0782,-0.0676,-0.0646,-0.0485,-0.0271,-0.0184,-0.0056,-0.0049,0.0053,0.0101,0.0049,0.0139,0.013,0.0027,0,0,0,0,0,0,-0.0604,-0.0662,-0.0691,-0.0735,-0.0764,-0.0803,-0.0803,-0.0779,-0.0709,-0.0654,-0.0535,-0.0468,-0.0264,-0.0341,-0.0057,-0.0024,-0.0042,0.0198,0.02,0.0145,0.0136,0.0128,0.002,0,0,0,0,0]}]]